Weather in Verkhnyaya Igra

Russia / Udmurt Republic     55°56′56″N   52°06′23″E
temp.,
°C
wind,
m/s
gust,
m/s
humid.,
%
clouds,
%
prec.,
mm/h
press.,
hPa
HPBL,
m
20 april, tue
tue2001:000ene411540 0.0 1033245
04:00−1e49560 0.0 1033198
07:00+1ese48520 0.0 1034279
10:00+5ese67320 0.0 10341077
13:00+7ese57280 0.0 10331290
16:00+9ese56270 0.0 10321315
19:00+6ese35420 0.0 1031102
22:00+3ese48500 0.0 1031128
21 april, wed
wed2101:00+2ese4105416 0.0 1031154
04:00+1ese4115795 0.0 1031187
07:00+2se51353100 0.0 1030408
10:00+7sse91336100 0.0 1029936
13:00+9se81233100 0.0 10271059
16:00+10s81334100 0.0 10271380
19:00+7s71346100 0.0 1026989
22:00+5s61472100 0.7 10271038
22 april, thu
thu2201:00+3s81696100 3.3 1026801
04:00+3sse71397100 5.3 1026847
07:00+3sse61197100 0.4 1026816
10:00+4s61197100 3.5 1026824
13:00+4s61192100 0.3 1027671
16:00+7s5980100 0.3 1027669
19:00+7s51080100 0.0 1027487
22:00+5s4888100 0.0 1027384
23 april, fri
fri2301:00+4s4894100 0.0 1027379
04:00+3sse3696100 0.1 1027288
07:00+3sse3697100 0.0 1028264
10:00+4s3697100 0.1 1028299
13:00+7sse338675 0.0 1028445
16:00+8sse228049 0.1 1028464
19:00+8ese358397 0.0 1027197
22:00+5e3492100 0.0 102772
24 april, sat
sat2401:00+4e3693100 0.0 1026128
04:00+3ene3795100 0.0 1024144
07:00+4ene4790100 0.0 1023228
10:00+7ene4681100 0.0 1021418
13:00+6ene3588100 0.4 1020386
16:00+6ene2495100 1.3 1018276
19:00+5e1398100 0.3 1017122
22:00+5ssw1198100 0.4 101716